Galena, AK

8:07 PM AKDT on April 26, 2017 (GMT -0800)
Pitka

Weather History for PAGA - April, 2013

Change the Weather History Date:

Saturday, April 20, 2013

  Actual Average Record
Temperature  
Mean Temperature 25 °F -  
Max Temperature 42 °F 34 °F 53 °F (2016)
Min Temperature 8 °F 18 °F -11 °F (1966)
Degree Days  
Heating Degree Days 40    
Moisture  
Dew Point 8 °F    
Average Humidity 57    
Maximum Humidity 85    
Minimum Humidity 22    
Precipitation  
Precipitation 0.00 in - - ()
Sea Level Pressure  
Sea Level Pressure 30.43 in    
Wind  
Wind Speed 1 mph (SSE)    
Max Wind Speed 5 mph    
Max Gust Speed -    
Visibility 8 miles    
Events      
Averages and records for this station are not official NWS values.
T = Trace of Precipitation, MM = Missing Value Source: NWS Daily Summary

Daily Weather History Graph

Daily Weather History Graph

Search for Another Location

Airport or City:

Trip Planner

Search our weather history database for the weather conditions in past years. The results will help you decide how hot, cold, wet, or windy it might be!

Date:

Astronomy

Apr. 20, 2013 Rise Set
Actual Time 6:33 AM AKDT 10:21 PM AKDT
Civil Twilight 5:32 AM AKDT 11:23 PM AKDT
Nautical Twilight 3:49 AM AKDT 1:11 AM AKDT
Astronomical Twilight Sun does not set Sun does not set
Moon 3:29 PM AKDT (4/20) 5:23 AM AKDT (4/20)
Length of Visible Light 17h 51m
Length of Day
15h 48m
Waxing Gibbous, 72% of the Moon is Illuminated
Apr 20
Waxing Gibbous
Apr 25
Full
May 2
Last Quarter
May 9
New
May 17
First Quarter

Hourly Weather History & Observations

Time (AKDT) Temp. Windchill Dew Point Humidity Pressure Visibility Wind Dir Wind Speed Gust Speed Precip Events Conditions
12:58 AM 24.1 °F - 10.9 °F 57% 30.45 in 10.0 mi Calm Calm - N/A   Clear
1:58 AM 21.0 °F - 9.0 °F 60% 30.45 in 10.0 mi Calm Calm - N/A   Clear
2:58 AM 17.1 °F - 9.0 °F 71% 30.45 in 10.0 mi Calm Calm - N/A   Clear
3:58 AM 14.0 °F - 6.1 °F 71% 30.45 in 10.0 mi Calm Calm - N/A   Clear
4:58 AM 12.0 °F - 6.1 °F 77% 30.44 in 10.0 mi Calm Calm - N/A   Clear
5:58 AM 10.9 °F - 5.0 °F 77% 30.44 in 10.0 mi Calm Calm - N/A   Clear
6:58 AM 9.0 °F - 3.9 °F 80% 30.43 in 10.0 mi Calm Calm - N/A   Clear
7:58 AM 10.0 °F - 5.0 °F 80% 30.43 in 10.0 mi Calm Calm - N/A   Clear
8:58 AM 10.0 °F - 3.9 °F 76% 30.43 in 4.0 mi Calm Calm - N/A   Haze
9:00 AM 8.6 °F - 3.2 °F 79% 30.41 in 1.5 mi Calm Calm - N/A   Haze
9:03 AM 8.6 °F - 5.0 °F 85% 30.41 in 0.8 mi Calm Calm - N/A   Clear
9:09 AM 10.4 °F 4.0 °F 5.0 °F 79% 30.41 in 0.5 mi SSE 3.5 mph - N/A   Haze
9:15 AM 10.4 °F - 6.8 °F 85% 30.41 in 0.8 mi Calm Calm - N/A   Clear
9:18 AM 10.4 °F - 6.8 °F 85% 30.41 in 1.2 mi Calm Calm - N/A   Haze
9:29 AM 14.0 °F - 8.6 °F 79% 30.42 in 3.0 mi Calm Calm - N/A   Haze
9:58 AM 18.0 °F - 9.0 °F 68% 30.44 in 10.0 mi Calm Calm - N/A   Clear
10:58 AM 23.0 °F 18.4 °F 10.9 °F 60% 30.44 in 10.0 mi WSW 3.5 mph - N/A   Clear
11:58 AM 28.0 °F - 12.0 °F 51% 30.44 in 10.0 mi Calm Calm - N/A   Clear
12:58 PM 34.0 °F 29.8 °F 12.0 °F 40% 30.44 in 10.0 mi SW 4.6 mph - N/A   Clear
1:58 PM 36.0 °F 33.3 °F 10.9 °F 36% 30.43 in 10.0 mi East 3.5 mph - N/A   Clear
2:58 PM 37.9 °F 34.4 °F 10.9 °F 33% 30.43 in 10.0 mi SSE 4.6 mph - N/A   Clear
3:58 PM 39.0 °F - 12.9 °F 34% 30.43 in 10.0 mi Calm Calm - N/A   Clear
4:58 PM 39.9 °F 36.7 °F 9.0 °F 28% 30.41 in 10.0 mi SW 4.6 mph - N/A   Clear
5:58 PM 39.9 °F 37.8 °F 7.0 °F 26% 30.40 in 10.0 mi SSE 3.5 mph - N/A   Clear
6:58 PM 42.1 °F 39.2 °F 6.1 °F 23% 30.40 in 9.0 mi Variable 4.6 mph - N/A   Clear
7:58 PM 41.0 °F 38.0 °F 5.0 °F 23% 30.40 in 10.0 mi NNE 4.6 mph - N/A   Clear
8:58 PM 39.9 °F - 3.9 °F 22% 30.40 in 10.0 mi Calm Calm - N/A   Clear
9:58 PM 34.0 °F - 10.9 °F 38% 30.40 in 10.0 mi Calm Calm - N/A   Clear
10:58 PM 33.1 °F 28.7 °F 9.0 °F 37% 30.42 in 9.0 mi North 4.6 mph - N/A   Clear
11:58 PM 32.0 °F 27.5 °F 14.0 °F 48% 30.43 in 10.0 mi North 4.6 mph - N/A   Clear